[[{"header":{"parameterUnit":"m.s-1","parameterCategory":1,"la1":30.2991,"la2":30.254,"lo1":-89.0895,"lo2":-89.0444,"dy":0.0017,"dx":0.0017,"nx":28,"ny":28,"refTime":"2025-04-22T03:00:00:Z","depth":0,"parameterNumber":2,"parameterNumberName":"U-component_of_WINDS"},"data":[0,0,0,0,0,0,0,0,0,0,0,0,0,0,0,0,0,0,0,0,0,0,0,0,0,0,0,0,0,0,0,0,0,0,0,0,0,0,0,0,0,0,0,0,0,0,0,0,0,0,0,0,0,0,0,0,0,0,-1.9807,-1.9807,0,-1.9794,-1.9794,-1.9794,-1.9755,-1.9754,-1.9753,-1.9752,-1.974,-1.9741,-1.9741,0,0,0,0,0,0,0,0,0,0,0,0,0,-1.9799,-1.9799,-1.9807,-1.9807,-1.9807,-1.9794,-1.9794,-1.9794,-1.9755,-1.9754,-1.9753,-1.9752,-1.974,-1.9741,-1.9741,0,0,0,0,0,0,0,0,0,0,0,0,0,-1.9796,-1.9799,-1.9807,-1.9786,-1.9784,-1.9794,-1.9794,-1.9794,-1.9755,-1.9754,-1.9752,-1.9751,-1.974,-1.9741,-1.9741,-1.9772,0,0,-1.9744,-1.9744,0,0,0,0,0,0,0,0,-1.9796,-1.9796,-1.9789,-1.9787,-1.9785,-1.9775,-1.9787,-1.9787,-1.9755,-1.9766,-1.9752,-1.975,-1.9753,-1.9752,-1.9753,-1.9772,-1.9771,-1.9744,-1.9744,-1.9744,-1.9745,0,0,0,0,0,0,0,-1.9796,-1.9797,-1.9802,-1.9789,-1.9786,-1.9777,-1.9775,-1.9787,-1.9767,-1.9765,-1.9762,-1.9761,-1.9751,-1.9752,-1.9752,-1.9771,-1.9744,-1.9744,-1.9745,-1.9745,-1.9815,-1.9816,0,0,0,0,0,0,-1.9799,-1.9797,-1.9802,-1.9802,-1.9787,-1.9778,-1.9776,-1.9779,-1.9767,-1.9763,-1.9762,-1.9759,-1.9752,-1.9752,-1.9752,-1.9787,-1.9744,-1.9745,-1.9746,-1.9814,-1.9815,-1.9817,0,0,0,0,0,0,-1.9799,-1.98,-1.9803,-1.9799,-1.9798,-1.978,-1.9784,-1.978,-1.978,-1.9765,-1.9761,-1.9766,-1.9751,-1.9751,-1.9767,-1.9786,-1.9745,-1.9746,-1.9812,-1.9814,-1.9816,-1.9858,0,0,0,0,0,0,-1.9799,-1.98,-1.9812,-1.9799,-1.9799,-1.9818,-1.9785,-1.978,-1.9782,-1.9778,-1.9768,-1.9765,-1.975,-1.9767,-1.9768,-1.9786,-1.9747,-1.981,-1.9813,-1.9815,-1.9855,-1.9862,-1.9867,0,0,0,0,0,-1.9799,-1.9824,-1.9812,-1.9813,-1.9812,-1.9819,-1.9819,-1.9801,-1.9783,-1.9795,-1.9785,-1.9765,-1.9784,-1.9769,-1.977,-1.9789,-1.9809,-1.9812,-1.9815,-1.9852,-1.986,-1.9867,0,0,0,0,0,0,-1.984,-1.9822,-1.9809,-1.983,-1.9827,-1.9813,-1.9826,-1.981,-1.9811,-1.9808,-1.9785,-1.9783,-1.9803,-1.9798,-1.9781,-1.9818,-1.9793,-1.9797,-1.9821,-1.9828,-1.9834,-1.9835,-1.9747,0,0,0,0,0,-1.9851,-1.9858,-1.9843,-1.9863,-1.9862,-1.9845,-1.9847,-1.9834,-1.9829,-1.9827,-1.9818,-1.9815,-1.982,-1.9824,-1.9828,-1.9854,-1.9852,-1.9868,-1.9874,-1.9879,-1.9882,-1.9896,-1.9903,-1.9827,-1.9827,-1.9827,0,0,-1.9875,-1.9866,-1.9872,-1.9871,-1.9867,-1.9875,-1.9844,-1.9854,-1.986,-1.9829,-1.9844,-1.9838,-1.9833,-1.9854,-1.9863,-1.985,-1.9903,-1.9883,-1.9887,-1.9888,-1.99,-1.9908,-1.9914,-1.9829,-1.9829,-1.9829,0,0,-1.9922,-1.9916,-1.9932,-1.9929,-1.9922,-1.9911,-1.9915,-1.9904,-1.9898,-1.9913,-1.989,-1.9897,-1.9907,-1.9904,-1.9904,-1.9952,-1.9934,-1.9954,-1.9985,-1.9998,-2.0004,-2.0009,-2.0026,-2.0033,-1.9957,-1.9957,-1.9957,0,-1.9952,-1.9963,-1.9943,-1.9955,-1.9955,-1.9928,-1.9945,-1.9942,-1.9938,-1.9939,-1.9925,-1.9936,-1.9931,-1.9952,-1.9963,-1.9964,-1.9968,-1.9954,-2.0005,-2.001,-2.0015,-2.003,-2.0037,-1.9959,-1.9959,-1.9959,-1.9959,0,-2.0001,-2.0009,-2.0023,-2.0019,-2.0021,-2.0036,-2.0018,-2.0023,-2.001,-2.0,-2.0016,-2.0009,-2.0011,-2.0015,-2.0002,-2.0034,-2.0026,-2.0009,-1.9983,-2.0025,-2.0039,-2.0045,-1.9963,-1.9962,-1.9961,-1.9961,0,0,-2.0072,-2.0057,-2.0063,-2.0061,-2.0052,-2.0058,-2.0072,-2.0074,-2.0078,-2.0077,-2.0087,-2.0096,-2.008,-2.008,-2.0067,-2.0079,-2.0117,-2.006,-2.006,-2.0071,-2.0153,-2.0165,-2.0173,-2.0106,-2.0107,-2.0108,-2.0153,0,-2.0117,-2.0138,-2.0121,-2.0146,-2.0153,-2.0128,-2.0139,-2.0136,-2.0127,-2.0133,-2.0124,-2.013,-2.0109,-2.0109,-2.012,-2.011,-2.0133,-2.0107,-2.0116,-2.0116,-2.0117,-2.018,-2.0194,-2.0237,-2.0158,-2.0159,-2.016,0,-2.0171,-2.0172,-2.0197,-2.0187,-2.019,-2.02,-2.0201,-2.0207,-2.0202,-2.0195,-2.0196,-2.0179,-2.0192,-2.0168,-2.0185,-2.0168,-2.0171,-2.0167,-2.0168,-2.0168,-2.014,-2.0181,-2.025,-2.0257,-2.0169,-2.0168,-2.0167,0,-2.0221,-2.0228,-2.0244,-2.0243,-2.0232,-2.024,-2.0236,-2.023,-2.0233,-2.0233,-2.0235,-2.0237,-2.0239,-2.0241,-2.0226,-2.021,-2.0246,-2.022,-2.0241,-2.0241,-2.0249,-2.0249,-2.0319,-2.0252,-2.0252,-2.0252,-2.0252,0,-2.0272,-2.0289,-2.0266,-2.0276,-2.0294,-2.0274,-2.0293,-2.0286,-2.0282,-2.029,-2.0269,-2.0277,-2.0257,-2.0264,-2.0252,-2.0269,-2.027,-2.0265,-2.0261,-2.0266,-2.0267,-2.0268,-2.0264,-2.0253,-2.0253,-2.0253,-2.0252,0,-2.0331,-2.0316,-2.0332,-2.032,-2.0317,-2.0331,-2.0321,-2.033,-2.0321,-2.0332,-2.0333,-2.0318,-2.0325,-2.031,-2.0315,-2.0308,-2.0331,-2.0323,-2.0333,-2.033,-2.0352,-2.035,-2.0425,-2.0433,-2.0361,-2.0362,-2.0362,0,-2.0364,-2.0376,-2.0366,-2.037,-2.0367,-2.0373,-2.0376,-2.0357,-2.0361,-2.0357,-2.0367,-2.0372,-2.0374,-2.0387,-2.0377,-2.038,-2.0372,-2.0398,-2.0373,-2.0378,-2.0373,-2.0372,-2.0373,-2.0403,-2.0404,-2.0405,-2.0406,0,-2.0426,-2.0418,-2.0421,-2.0423,-2.0426,-2.0427,-2.0426,-2.043,-2.0411,-2.0416,-2.0422,-2.0425,-2.043,-2.0435,-2.0436,-2.0433,-2.0416,-2.0414,-2.0419,-2.0424,-2.0429,-2.0426,-2.0347,-2.0412,-2.0411,-2.0411,-2.041,-2.041,-2.0472,-2.0482,-2.0476,-2.0481,-2.0479,-2.0478,-2.0486,-2.0477,-2.0482,-2.0484,-2.0474,-2.0483,-2.0479,-2.0479,-2.0477,-2.0484,-2.0473,-2.048,-2.0482,-2.0484,-2.0487,-2.0428,-2.0484,-2.0484,-2.0484,-2.0484,-2.0484,0,-2.0533,-2.0528,-2.0533,-2.0532,-2.0536,-2.052,-2.0518,-2.0522,-2.0531,-2.0528,-2.0531,-2.0539,-2.0544,-2.0535,-2.0538,-2.0546,-2.0539,-2.0548,-2.0547,-2.0546,-2.0497,-2.0492,-2.0554,-2.0554,-2.0554,-2.0554,-2.0554,-2.0554,-2.0565,-2.058,-2.0572,-2.0586,-2.0581,-2.0589,-2.059,-2.0589,-2.0587,-2.0596,-2.0601,-2.0594,-2.0589,-2.0592,-2.0596,-2.0593,-2.0596,-2.0608,-2.0602,-2.0557,-2.055,-2.0543,-2.0539,-2.0608,-2.0609,-2.0651,-2.0651,-2.0651]},{"header":{"parameterUnit":"m.s-1","parameterCategory":1,"la1":30.2991,"la2":30.254,"lo1":-89.0895,"lo2":-89.0444,"dy":0.0017,"dx":0.0017,"nx":28,"ny":28,"refTime":"2025-04-22T03:00:00:Z","depth":0,"parameterNumber":3,"parameterNumberName":"V-component_of_WINDS"},"data":[0,0,0,0,0,0,0,0,0,0,0,0,0,0,0,0,0,0,0,0,0,0,0,0,0,0,0,0,0,0,0,0,0,0,0,0,0,0,0,0,0,0,0,0,0,0,0,0,0,0,0,0,0,0,0,0,0,0,2.3443,2.3443,0,2.3446,2.3446,2.3446,2.347,2.347,2.3471,2.3471,2.3471,2.347,2.347,0,0,0,0,0,0,0,0,0,0,0,0,0,2.3455,2.3455,2.3443,2.3443,2.3443,2.3446,2.3446,2.3446,2.3469,2.347,2.3471,2.3472,2.3471,2.347,2.347,0,0,0,0,0,0,0,0,0,0,0,0,0,2.3453,2.3455,2.3443,2.3455,2.3457,2.3446,2.3446,2.3446,2.3469,2.347,2.3471,2.3472,2.3471,2.347,2.3469,2.3446,0,0,2.3467,2.3466,0,0,0,0,0,0,0,0,2.3453,2.3453,2.3454,2.3455,2.3456,2.3458,2.345,2.3446,2.3469,2.3464,2.3471,2.3472,2.3466,2.3465,2.3464,2.3446,2.3446,2.3467,2.3466,2.3466,2.3466,0,0,0,0,0,0,0,2.3454,2.3453,2.3444,2.3454,2.3455,2.346,2.3461,2.345,2.346,2.3465,2.3467,2.3467,2.3466,2.3465,2.3464,2.3446,2.3467,2.3466,2.3465,2.3465,2.3411,2.341,0,0,0,0,0,0,2.3452,2.3453,2.3444,2.3444,2.3457,2.3459,2.346,2.3457,2.346,2.3462,2.3466,2.3468,2.3466,2.3465,2.3464,2.3438,2.3466,2.3465,2.3465,2.3412,2.341,2.3409,0,0,0,0,0,0,2.3453,2.3451,2.3444,2.3449,2.3449,2.3458,2.3454,2.3456,2.3454,2.3461,2.3463,2.3462,2.3466,2.3465,2.3451,2.3438,2.3465,2.3464,2.3413,2.3411,2.341,2.3384,0,0,0,0,0,0,2.3453,2.3451,2.3443,2.3449,2.3448,2.3432,2.3453,2.3456,2.3453,2.3456,2.3458,2.3459,2.3467,2.3452,2.345,2.3437,2.3463,2.3414,2.3412,2.341,2.3386,2.3382,2.3378,0,0,0,0,0,2.3453,2.3435,2.3443,2.3442,2.3438,2.3431,2.343,2.3441,2.3452,2.3444,2.3448,2.3459,2.344,2.345,2.3448,2.3435,2.3415,2.3413,2.3411,2.3388,2.3383,2.3379,0,0,0,0,0,0,2.3426,2.3436,2.3445,2.3428,2.3429,2.3435,2.3425,2.3435,2.3431,2.3434,2.3445,2.3446,2.3429,2.3431,2.3443,2.3413,2.3429,2.3427,2.3413,2.3408,2.3404,2.3404,2.3463,0,0,0,0,0,2.3419,2.3413,2.3421,2.3405,2.3406,2.3415,2.3412,2.342,2.3421,2.3421,2.3424,2.3423,2.3417,2.3413,2.3407,2.3387,2.3387,2.3377,2.3373,2.3369,2.3367,2.3356,2.3351,2.3403,2.3403,2.3403,0,0,2.3402,2.3407,2.3402,2.34,2.3402,2.3394,2.3415,2.3406,2.3401,2.3419,2.3406,2.3409,2.3409,2.3391,2.3384,2.3392,2.3353,2.3367,2.3364,2.3363,2.3353,2.3349,2.3344,2.3401,2.3401,2.3402,0,0,2.3369,2.3372,2.3359,2.3361,2.3363,2.337,2.3367,2.3372,2.3375,2.3362,2.3376,2.3369,2.3358,2.3358,2.3356,2.3324,2.3334,2.3322,2.3301,2.3291,2.3287,2.3283,2.3271,2.3267,2.3319,2.3319,2.3319,0,2.3348,2.3338,2.3351,2.3342,2.3341,2.3359,2.3346,2.3346,2.3346,2.3344,2.3354,2.3341,2.3342,2.3325,2.3318,2.3316,2.3312,2.3321,2.3286,2.3283,2.328,2.3269,2.3264,2.3318,2.3318,2.3318,2.3318,0,2.3313,2.3306,2.3295,2.3296,2.3294,2.3283,2.3293,2.3289,2.3297,2.3303,2.329,2.3292,2.3288,2.3285,2.3292,2.3269,2.3274,2.3285,2.3301,2.3273,2.3263,2.3259,2.3316,2.3316,2.3317,2.3317,0,0,2.3261,2.3271,2.3266,2.3267,2.3272,2.3266,2.3256,2.3253,2.3249,2.3249,2.324,2.3231,2.3242,2.324,2.3248,2.3238,2.3212,2.3251,2.3251,2.3243,2.3187,2.3178,2.3173,2.322,2.3219,2.3218,2.3186,0,2.3229,2.3213,2.3224,2.3206,2.32,2.3217,2.3208,2.3209,2.3214,2.3209,2.3214,2.3207,2.3222,2.3221,2.3213,2.3217,2.3201,2.322,2.3211,2.321,2.321,2.3167,2.3158,2.3128,2.3183,2.3182,2.3181,0,2.3189,2.3188,2.3169,2.3176,2.3174,2.3165,2.3164,2.3159,2.3161,2.3165,2.3164,2.3174,2.3164,2.318,2.3166,2.3178,2.3175,2.3177,2.3176,2.3175,2.3194,2.3165,2.3119,2.3114,2.3175,2.3176,2.3176,0,2.3153,2.3147,2.3136,2.3136,2.3143,2.3137,2.3139,2.3142,2.314,2.3138,2.3137,2.3134,2.3132,2.3129,2.3138,2.3149,2.3122,2.3139,2.3124,2.3124,2.3117,2.3117,2.307,2.3116,2.3116,2.3116,2.3116,0,2.3116,2.3103,2.312,2.3112,2.3099,2.3112,2.3099,2.3103,2.3105,2.3099,2.3113,2.3106,2.3119,2.3113,2.312,2.3107,2.3106,2.3108,2.311,2.3107,2.3106,2.3104,2.3106,2.3115,2.3115,2.3116,2.3116,0,2.3073,2.3084,2.3072,2.308,2.3082,2.3072,2.3078,2.3072,2.3078,2.3069,2.3068,2.3077,2.3072,2.3081,2.3075,2.308,2.3062,2.3067,2.3061,2.3063,2.3047,2.3048,2.2996,2.299,2.3041,2.304,2.304,0,2.3048,2.3039,2.3047,2.3044,2.3046,2.3041,2.3039,2.3052,2.3049,2.3052,2.3044,2.304,2.3037,2.3026,2.3032,2.3028,2.3033,2.3015,2.3033,2.303,2.3033,2.3033,2.3032,2.3011,2.3011,2.301,2.301,0,2.3003,2.3009,2.3006,2.3005,2.3003,2.3003,2.3003,2.3,2.3013,2.3009,2.3004,2.3002,2.2998,2.2993,2.299,2.2992,2.3003,2.3005,2.3001,2.2997,2.2994,2.2995,2.3051,2.3005,2.3006,2.3006,2.3006,2.3007,2.2968,2.2961,2.2966,2.2962,2.2965,2.2965,2.2959,2.2966,2.2962,2.296,2.2967,2.296,2.2963,2.2961,2.2962,2.2956,2.2964,2.2958,2.2957,2.2955,2.2953,2.2996,2.2956,2.2956,2.2956,2.2956,2.2956,0,2.2924,2.2928,2.2924,2.2926,2.2923,2.2935,2.2936,2.2933,2.2927,2.2929,2.2926,2.292,2.2916,2.2922,2.2918,2.2912,2.2917,2.2911,2.2911,2.2911,2.2946,2.295,2.2907,2.2907,2.2907,2.2907,2.2907,2.2907,2.29,2.2889,2.2895,2.2886,2.289,2.2884,2.2883,2.2884,2.2885,2.2879,2.2875,2.288,2.2883,2.2881,2.2877,2.2879,2.2877,2.2869,2.2872,2.2904,2.2909,2.2913,2.2917,2.2868,2.2868,2.2838,2.2838,2.2837]}]]